Flag for Norway Weather past 2 weeks in Fredrikstad, Norway

Now
50 °F

Cool.


Feels Like: 46 °F
Forecast: 44 / 58 °F
Wind: 10 mph from North

Location: Rygge

Current Time: Apr 21, 2015 at 4:45:07 AM

Latest Report: Apr 21, 2015 at 3:50 AM


Visibility: N/A

Pressure: 30.27 "Hg

Humidity: 40%

Dew point: 27 °F

Location of FredrikstadLocation

Historic Weather in Fredrikstad — Graph

°F

Fredrikstad temperature yesterday

Maximum temperature yesterday: 68 °F (at 12:50 PM)
Minimum temperature yesterday: 43 °F (at 6:50 AM)
Average temperature yesterday: 55 °F

Past Weeks' High & Low Weather Summary

 TemperatureHumidityPressure
High68 °F (Apr 20, 12:50 PM)100% (Apr 7, 12:50 AM)30.45 "Hg (Apr 7, 12:50 AM)
Low30 °F (Apr 6, 4:20 AM)23% (Apr 8, 5:20 PM)29.45 "Hg (Apr 15, 5:50 PM)
Average46 °F63%30.04 "Hg
* Reported Apr 6 3:20 AM — Apr 21 3:50 AM, Fredrikstad, Weather by CustomWeather, © 2015

Note: Actual official high and low records may vary slightly from our data, if they occured in-between our weather recording intervals... More about our weather records

Advertising

Fredrikstad weather history for previous 24 hours

 ConditionsComfort  
Time TempWeatherWind HumidityBarometerVisibility
3:50 AM
Tue, Apr 21
50 °FCool.10 mph40%30.27 "HgN/A
3:20 AM52 °FCool.10 mph38%30.27 "HgN/A
2:50 AM52 °FCool.10 mph38%30.24 "HgN/A
2:20 AM52 °FCool.10 mph38%30.24 "HgN/A
1:50 AM52 °FCool.8 mph38%30.24 "HgN/A
1:20 AM54 °FCool.10 mph35%30.24 "HgN/A
12:50 AM55 °FRefreshingly cool.12 mph33%30.24 "HgN/A
11:50 PM
Mon, Apr 20
54 °FClear.6 mph41%30.24 "Hg10 mi
11:20 PM54 °FClear.5 mph41%30.21 "Hg10 mi
10:50 PM55 °FClear.5 mph38%30.21 "Hg10 mi
10:20 PM54 °FClear.6 mph47%30.21 "Hg10 mi
9:50 PM57 °FClear.7 mph39%30.21 "Hg10 mi
9:20 PM55 °FSunny.6 mph47%30.21 "Hg10 mi
8:50 PM55 °FSunny.3 mph51%30.21 "Hg10 mi
8:20 PM57 °FSunny.6 mph48%30.21 "Hg10 mi
7:50 PM59 °FSunny.5 mph45%30.21 "Hg10 mi
7:20 PM61 °FSunny.7 mph39%30.21 "Hg10 mi
6:50 PM63 °FPassing clouds.6 mph34%30.21 "HgN/A
6:20 PM61 °FPassing clouds.5 mph39%30.24 "HgN/A
5:50 PM59 °FSunny.7 mph39%30.24 "Hg10 mi
5:20 PM57 °FSunny.12 mph41%30.24 "Hg10 mi
4:50 PM59 °FSunny.15 mph34%30.27 "Hg10 mi
4:20 PM61 °FSunny.14 mph31%30.27 "Hg10 mi
3:50 PM57 °FSunny.13 mph44%30.30 "Hg10 mi
3:20 PM59 °FSunny.13 mph39%30.30 "Hg10 mi
2:50 PM61 °FSunny.12 mph31%30.30 "Hg10 mi
2:20 PM66 °FSunny.9 mph26%30.30 "Hg10 mi
1:50 PM68 °FPassing clouds.7 mph23%30.33 "HgN/A
1:20 PM68 °FPassing clouds.6 mph23%30.33 "HgN/A
12:50 PM68 °FPassing clouds.6 mph26%30.33 "HgN/A
12:20 PM66 °FPassing clouds.3 mph28%30.33 "HgN/A
11:50 AM66 °FPassing clouds.5 mph30%30.36 "HgN/A
11:20 AM66 °FSunny.1 mph28%30.36 "Hg10 mi
10:50 AM63 °FSunny.1 mph32%30.36 "Hg10 mi
10:20 AM59 °FSunny.1 mph34%30.36 "Hg10 mi
9:50 AM57 °FSunny.5 mph41%30.36 "Hg10 mi
9:20 AM57 °FSunny.1 mph41%30.36 "Hg10 mi
8:50 AM54 °FSunny.5 mph51%30.36 "Hg10 mi
8:20 AM52 °FSunny.No wind44%30.36 "Hg10 mi
7:50 AM48 °FSunny.1 mph43%30.33 "Hg10 mi
7:20 AM45 °FSunny.3 mph49%30.33 "Hg10 mi
6:50 AM43 °FPassing clouds.3 mph49%30.33 "HgN/A
6:20 AM45 °FClear.6 mph49%30.33 "Hg10 mi
5:50 AM45 °FQuite cool.6 mph46%30.33 "HgN/A
5:20 AM46 °FCool.1 mph40%30.33 "HgN/A
4:50 AM46 °FCool.5 mph40%30.33 "HgN/A
4:20 AM48 °FCool.5 mph34%30.33 "HgN/A
Weather by CustomWeather, © 2015

See weather overviewHow to use our weather pages